CPA2068 EHAM-EDDF

Flight info

Callsign CPA2068
Flight time 0h 47m
Altitude 29000
Route EDUPO Z739 MISGO DCT DIXAT DIXAT1D
Aircraft B748/H-SDE3FGHIM1M2RWXY/LB1

Departure

Time 2026-04-18 04:05
Airport Amsterdam Airport Schiphol (EHAM)

Arrival

Time 2026-04-18 04:52
Airport Frankfurt Main Airport (EDDF)
Time Latitude Longitude Altitude Speed Heading
2026-04-18 03:29 52.31066 4.74442 4 ft 0 kts 273°
2026-04-18 03:51 52.31066 4.74443 4 ft 0 kts 273°
2026-04-18 03:52 52.31065 4.74464 4 ft 3 kts 273°
2026-04-18 03:52 52.31064 4.74492 4 ft 2 kts 273°
2026-04-18 03:52 52.31063 4.74520 6 ft 3 kts 289°
2026-04-18 03:52 52.31059 4.74544 6 ft 3 kts 316°
2026-04-18 03:53 52.31050 4.74559 4 ft 3 kts 348°
2026-04-18 03:53 52.31033 4.74563 6 ft 3 kts
2026-04-18 03:53 52.31013 4.74560 7 ft 2 kts
2026-04-18 03:53 52.31007 4.74559 7 ft 1 kts
2026-04-18 03:59 52.31022 4.74560 5 ft 6 kts
2026-04-18 04:00 52.31087 4.74565 4 ft 13 kts
2026-04-18 04:00 52.31218 4.74579 4 ft 24 kts
2026-04-18 04:00 52.31385 4.74628 4 ft 21 kts 38°
2026-04-18 04:00 52.31410 4.74836 4 ft 27 kts 90°
2026-04-18 04:01 52.31429 4.75152 4 ft 28 kts 77°
2026-04-18 04:01 52.31432 4.75463 4 ft 27 kts 88°
2026-04-18 04:01 52.31444 4.75767 4 ft 27 kts 88°
2026-04-18 04:01 52.31452 4.76082 4 ft 32 kts 88°
2026-04-18 04:02 52.31463 4.76533 4 ft 44 kts 88°
2026-04-18 04:02 52.31478 4.77013 4 ft 37 kts 88°
2026-04-18 04:02 52.31536 4.77202 4 ft 12 kts 37°
2026-04-18 04:02 52.31573 4.77325 4 ft 13 kts 81°
2026-04-18 04:03 52.31583 4.77473 4 ft 15 kts 85°
2026-04-18 04:03 52.31589 4.77674 4 ft 13 kts 88°
2026-04-18 04:03 52.31589 4.77691 4 ft 1 kts 88°
2026-04-18 04:03 52.31591 4.77791 4 ft 12 kts 88°
2026-04-18 04:04 52.31587 4.77876 5 ft 0 kts 106°
2026-04-18 04:04 52.31575 4.77923 6 ft 5 kts 123°
2026-04-18 04:04 52.31540 4.77949 6 ft 13 kts 162°
2026-04-18 04:04 52.31359 4.77946 4 ft 52 kts 182°
2026-04-18 04:05 52.30636 4.77880 5 ft 155 kts 184°
2026-04-18 04:05 52.29409 4.77737 673 ft 173 kts 185°
2026-04-18 04:05 52.28236 4.77651 1592 ft 175 kts 187°
2026-04-18 04:05 52.26969 4.77776 2354 ft 196 kts 162°
2026-04-18 04:06 52.25843 4.79222 3157 ft 221 kts 126°
2026-04-18 04:06 52.25371 4.81711 4256 ft 238 kts 91°
2026-04-18 04:06 52.25501 4.84468 5551 ft 246 kts 86°
2026-04-18 04:06 52.25567 4.87263 6775 ft 259 kts 92°
2026-04-18 04:07 52.25474 4.90335 7767 ft 282 kts 95°
2026-04-18 04:07 52.25339 4.93599 9027 ft 293 kts 95°
2026-04-18 04:07 52.25240 4.96970 10413 ft 304 kts 94°
2026-04-18 04:07 52.25152 5.00546 11393 ft 327 kts 94°
2026-04-18 04:08 52.25047 5.04376 12377 ft 350 kts 94°
2026-04-18 04:08 52.24923 5.08479 13336 ft 374 kts 94°
2026-04-18 04:08 52.24792 5.12853 14231 ft 398 kts 94°
2026-04-18 04:08 52.24658 5.17476 15218 ft 414 kts 94°
2026-04-18 04:09 52.24470 5.22152 16447 ft 422 kts 100°
2026-04-18 04:09 52.23681 5.26757 17734 ft 425 kts 116°
2026-04-18 04:09 52.22205 5.30938 18907 ft 428 kts 128°
2026-04-18 04:09 52.20453 5.34917 19963 ft 436 kts 130°
2026-04-18 04:10 52.18641 5.38928 21001 ft 444 kts 129°
2026-04-18 04:10 52.16838 5.43071 22023 ft 452 kts 128°
2026-04-18 04:10 52.15029 5.47305 23035 ft 460 kts 129°
2026-04-18 04:10 52.13164 5.51590 23959 ft 467 kts 129°
2026-04-18 04:11 52.11258 5.55902 24794 ft 473 kts 129°
2026-04-18 04:11 52.09360 5.60218 25607 ft 478 kts 129°
2026-04-18 04:11 52.07425 5.64649 26502 ft 480 kts 129°
2026-04-18 04:11 52.05428 5.68935 27777 ft 471 kts 134°
2026-04-18 04:12 52.03283 5.72947 28845 ft 472 kts 135°
2026-04-18 04:12 52.01084 5.76998 29179 ft 487 kts 135°
2026-04-18 04:12 51.98798 5.81232 29177 ft 510 kts 135°
2026-04-18 04:12 51.96430 5.85667 29189 ft 531 kts 134°
2026-04-18 04:13 51.93974 5.90277 29192 ft 547 kts 134°
2026-04-18 04:13 51.89159 5.99273 29151 ft 497 kts 135°
2026-04-18 04:13 51.86948 6.03377 29175 ft 482 kts 135°
2026-04-18 04:14 51.84754 6.07422 29164 ft 470 kts 135°
2026-04-18 04:14 51.80439 6.15339 29168 ft 469 kts 135°
2026-04-18 04:15 51.76120 6.23254 29174 ft 470 kts 135°
2026-04-18 04:15 51.71816 6.31103 29167 ft 470 kts 135°
2026-04-18 04:16 51.67478 6.38991 29191 ft 471 kts 135°
2026-04-18 04:16 51.63131 6.46873 29182 ft 471 kts 135°
2026-04-18 04:17 51.58776 6.54748 29175 ft 471 kts 135°
2026-04-18 04:17 51.54466 6.62518 29179 ft 471 kts 135°
2026-04-18 04:18 51.50096 6.70371 29189 ft 471 kts 135°
2026-04-18 04:18 51.45723 6.78206 29192 ft 472 kts 135°
2026-04-18 04:19 51.41371 6.85980 29196 ft 472 kts 134°
2026-04-18 04:19 51.37207 6.94175 29203 ft 477 kts 131°
2026-04-18 04:20 51.33066 7.02468 29201 ft 477 kts 131°
2026-04-18 04:20 51.28921 7.10769 29192 ft 478 kts 133°
2026-04-18 04:20 51.26581 7.14491 29215 ft 474 kts 144°
2026-04-18 04:21 51.23844 7.17373 29211 ft 470 kts 156°
2026-04-18 04:21 51.18249 7.21840 28927 ft 472 kts 157°
2026-04-18 04:21 51.15299 7.24152 28058 ft 474 kts 156°
2026-04-18 04:22 51.12344 7.26491 27233 ft 472 kts 156°
2026-04-18 04:22 51.09440 7.28932 26423 ft 472 kts 155°
2026-04-18 04:22 51.06523 7.31317 25584 ft 471 kts 156°
2026-04-18 04:22 51.03599 7.33664 24788 ft 470 kts 155°
2026-04-18 04:23 51.00698 7.36054 23967 ft 470 kts 154°
2026-04-18 04:23 50.97847 7.38437 23117 ft 468 kts 154°
2026-04-18 04:23 50.94974 7.40807 22304 ft 463 kts 155°
2026-04-18 04:23 50.92119 7.43130 21500 ft 459 kts 155°
2026-04-18 04:24 50.89291 7.45439 20724 ft 456 kts 154°
2026-04-18 04:24 50.86506 7.47728 20267 ft 445 kts 154°
2026-04-18 04:24 50.83802 7.49946 19898 ft 435 kts 155°
2026-04-18 04:24 50.81133 7.52118 19300 ft 430 kts 155°
2026-04-18 04:25 50.78516 7.54244 18684 ft 426 kts 154°
2026-04-18 04:25 50.75896 7.56379 18190 ft 420 kts 154°
2026-04-18 04:25 50.73304 7.58490 17794 ft 421 kts 154°
2026-04-18 04:25 50.70707 7.60597 17383 ft 419 kts 154°
2026-04-18 04:26 50.68126 7.62689 16994 ft 416 kts 154°
2026-04-18 04:26 50.65551 7.64775 16584 ft 414 kts 154°
2026-04-18 04:26 50.63000 7.66840 16199 ft 411 kts 155°
2026-04-18 04:26 50.60466 7.68886 15802 ft 410 kts 154°
2026-04-18 04:27 50.57936 7.70928 15413 ft 406 kts 155°
2026-04-18 04:27 50.55464 7.72919 15016 ft 404 kts 155°
2026-04-18 04:27 50.52972 7.74923 14644 ft 401 kts 155°
2026-04-18 04:27 50.50493 7.76915 14257 ft 399 kts 155°
2026-04-18 04:28 50.48029 7.78893 13876 ft 397 kts 154°
2026-04-18 04:28 50.45578 7.80859 13490 ft 394 kts 154°
2026-04-18 04:28 50.43192 7.82922 13116 ft 392 kts 147°
2026-04-18 04:28 50.41018 7.85504 12735 ft 391 kts 143°
2026-04-18 04:29 50.38920 7.88194 12357 ft 389 kts 142°
2026-04-18 04:29 50.36858 7.90821 11996 ft 386 kts 143°
2026-04-18 04:29 50.34753 7.93403 11633 ft 383 kts 143°
2026-04-18 04:29 50.32732 7.95870 11261 ft 343 kts 143°
2026-04-18 04:30 50.30929 7.98109 10941 ft 327 kts 143°
2026-04-18 04:30 50.29154 8.00309 10639 ft 324 kts 143°
2026-04-18 04:30 50.27416 8.02524 10333 ft 321 kts 136°
2026-04-18 04:30 50.26172 8.05370 10180 ft 315 kts 112°
2026-04-18 04:31 50.25558 8.08583 10180 ft 303 kts 105°
2026-04-18 04:31 50.25070 8.11687 10166 ft 293 kts 104°
2026-04-18 04:31 50.24604 8.14732 10129 ft 284 kts 104°
2026-04-18 04:31 50.24129 8.17679 10098 ft 275 kts 105°
2026-04-18 04:32 50.23660 8.20535 10059 ft 267 kts 105°
2026-04-18 04:32 50.23206 8.23330 10051 ft 265 kts 105°
2026-04-18 04:32 50.22774 8.26012 10015 ft 244 kts 105°
2026-04-18 04:32 50.22355 8.28591 9993 ft 245 kts 105°
2026-04-18 04:33 50.21924 8.31237 9972 ft 262 kts 105°
2026-04-18 04:33 50.21475 8.33991 9980 ft 265 kts 105°
2026-04-18 04:33 50.20986 8.36733 9979 ft 265 kts 114°
2026-04-18 04:33 50.19912 8.39037 10004 ft 263 kts 144°
2026-04-18 04:34 50.18306 8.40317 10054 ft 261 kts 161°
2026-04-18 04:34 50.16594 8.41249 10068 ft 261 kts 163°
2026-04-18 04:34 50.14877 8.42173 10073 ft 260 kts 163°
2026-04-18 04:34 50.13116 8.42605 10097 ft 256 kts 189°
2026-04-18 04:35 50.11451 8.41708 10145 ft 254 kts 216°
2026-04-18 04:35 50.10251 8.39750 10175 ft 251 kts 243°
2026-04-18 04:35 50.09569 8.37252 10215 ft 251 kts 250°
2026-04-18 04:35 50.08973 8.34736 10226 ft 251 kts 250°
2026-04-18 04:36 50.08377 8.32209 10083 ft 248 kts 250°
2026-04-18 04:36 50.07767 8.29694 9875 ft 248 kts 250°
2026-04-18 04:36 50.07154 8.27186 9664 ft 248 kts 250°
2026-04-18 04:36 50.06544 8.24678 9484 ft 247 kts 250°
2026-04-18 04:37 50.05937 8.22178 9280 ft 247 kts 249°
2026-04-18 04:37 50.05329 8.19683 9103 ft 246 kts 249°
2026-04-18 04:37 50.04722 8.17194 8893 ft 246 kts 249°
2026-04-18 04:37 50.04124 8.14746 8716 ft 245 kts 249°
2026-04-18 04:38 50.03520 8.12274 8540 ft 244 kts 249°
2026-04-18 04:38 50.02917 8.09809 8357 ft 243 kts 249°
2026-04-18 04:38 50.02331 8.07408 8136 ft 232 kts 249°
2026-04-18 04:38 50.01773 8.05116 7861 ft 223 kts 249°
2026-04-18 04:39 50.01228 8.02881 7504 ft 220 kts 249°
2026-04-18 04:39 50.00687 8.00669 7130 ft 218 kts 248°
2026-04-18 04:39 50.00151 7.98476 6759 ft 216 kts 248°
2026-04-18 04:39 49.99615 7.96297 6385 ft 215 kts 248°
2026-04-18 04:40 49.99090 7.94158 5994 ft 214 kts 248°
2026-04-18 04:40 49.98560 7.92000 5613 ft 214 kts 248°
2026-04-18 04:40 49.98030 7.89842 5238 ft 213 kts 248°
2026-04-18 04:40 49.97501 7.87692 4879 ft 213 kts 248°
2026-04-18 04:41 49.96973 7.85546 4478 ft 212 kts 248°
2026-04-18 04:41 49.96202 7.83630 4081 ft 211 kts 218°
2026-04-18 04:41 49.94904 7.82719 4018 ft 211 kts 187°
2026-04-18 04:41 49.93466 7.83026 4048 ft 212 kts 160°
2026-04-18 04:42 49.92102 7.83836 4019 ft 212 kts 159°
2026-04-18 04:42 49.90720 7.84680 4014 ft 211 kts 159°
2026-04-18 04:42 49.89337 7.85504 4017 ft 211 kts 160°
2026-04-18 04:42 49.88035 7.86576 4011 ft 213 kts 135°
2026-04-18 04:43 49.87312 7.88567 4022 ft 216 kts 101°
2026-04-18 04:43 49.87441 7.90865 4023 ft 217 kts 70°
2026-04-18 04:43 49.88016 7.93022 4018 ft 211 kts 67°
2026-04-18 04:43 49.88564 7.95034 4002 ft 199 kts 69°
2026-04-18 04:44 49.89085 7.97137 4012 ft 212 kts 70°
2026-04-18 04:44 49.89605 7.99282 4012 ft 216 kts 70°
2026-04-18 04:44 49.90139 8.01470 4010 ft 217 kts 70°
2026-04-18 04:44 49.90677 8.03661 4020 ft 218 kts 70°
2026-04-18 04:45 49.91214 8.05854 4012 ft 217 kts 70°
2026-04-18 04:45 49.91753 8.08046 4017 ft 218 kts 69°
2026-04-18 04:45 49.92295 8.10234 4016 ft 217 kts 70°
2026-04-18 04:45 49.92838 8.12427 4009 ft 217 kts 70°
2026-04-18 04:46 49.93197 8.13878 4013 ft 217 kts 70°
2026-04-18 04:46 49.93925 8.16756 4006 ft 217 kts 66°
2026-04-18 04:46 49.94518 8.18906 4014 ft 216 kts 70°
2026-04-18 04:46 49.95045 8.21095 4009 ft 216 kts 70°
2026-04-18 04:47 49.95569 8.23289 4010 ft 217 kts 70°
2026-04-18 04:47 49.96073 8.25402 3986 ft 204 kts 70°
2026-04-18 04:47 49.96587 8.27561 3742 ft 215 kts 70°
2026-04-18 04:47 49.96929 8.28993 3558 ft 212 kts 70°
2026-04-18 04:48 49.97443 8.31150 3282 ft 213 kts 70°
2026-04-18 04:48 49.98120 8.33991 2919 ft 209 kts 70°
2026-04-18 04:48 49.98631 8.36108 2681 ft 208 kts 70°
2026-04-18 04:48 49.99133 8.38214 2426 ft 207 kts 70°
2026-04-18 04:49 49.99633 8.40311 2164 ft 201 kts 70°
2026-04-18 04:49 49.99936 8.41582 1987 ft 178 kts 70°
2026-04-18 04:49 50.00334 8.43262 1712 ft 155 kts 70°
2026-04-18 04:49 50.00691 8.44777 1433 ft 145 kts 70°
2026-04-18 04:50 50.01018 8.46223 1162 ft 141 kts 71°
2026-04-18 04:50 50.01444 8.48102 868 ft 139 kts 68°
2026-04-18 04:50 50.01814 8.49516 783 ft 140 kts 67°
2026-04-18 04:50 50.02034 8.50482 670 ft 139 kts 70°
2026-04-18 04:51 50.02366 8.51864 566 ft 137 kts 68°
2026-04-18 04:51 50.02716 8.53271 407 ft 142 kts 68°
2026-04-18 04:51 50.03043 8.54562 360 ft 100 kts 70°
2026-04-18 04:51 50.03226 8.55367 357 ft 61 kts 69°
2026-04-18 04:52 50.03365 8.55986 359 ft 60 kts 67°
2026-04-18 04:52 50.03652 8.56510 361 ft 33 kts 39°
2026-04-18 04:52 50.03726 8.56604 360 ft 0 kts 39°
2026-04-18 04:53 50.03757 8.56648 356 ft 15 kts 47°
2026-04-18 04:53 50.03829 8.56866 359 ft 31 kts 69°
2026-04-18 04:54 50.03927 8.57261 359 ft 47 kts 69°
2026-04-18 04:54 50.04051 8.57804 357 ft 60 kts 70°
2026-04-18 04:54 50.04204 8.58449 357 ft 63 kts 71°
2026-04-18 04:54 50.04353 8.59069 357 ft 59 kts 70°
2026-04-18 04:55 50.04454 8.59431 361 ft 9 kts 31°
2026-04-18 04:55 50.04638 8.59448 354 ft 36 kts 352°
2026-04-18 04:55 50.04839 8.59369 358 ft 12 kts
2026-04-18 04:56 50.05010 8.59326 361 ft 13 kts 338°
2026-04-18 04:56 50.05063 8.59254 362 ft 7 kts 293°
2026-04-18 04:56 50.05064 8.59189 354 ft 7 kts 261°
2026-04-18 04:56 50.05048 8.59093 357 ft 12 kts 252°
2026-04-18 04:57 50.04966 8.58751 357 ft 51 kts 249°
2026-04-18 04:57 50.04894 8.58444 357 ft 26 kts 251°
2026-04-18 04:57 50.04865 8.58329 362 ft 0 kts 247°
2026-04-18 04:57 50.04884 8.58252 356 ft 9 kts 304°
2026-04-18 04:58 50.04916 8.58208 362 ft 0 kts 328°